1515700800.21,4748,9.63,73192.8,-5.45,-11.59,-11.51,0,*63
1515700801.47,4749,9.69,73198.5,-5.45,-11.55,-11.41,0,*6F
1515700802.75,4750,9.63,73194.8,-5.45,-11.55,-11.37,0,*66
1515700804.03,4751,9.63,73194.8,-5.45,-11.51,-11.37,0,*63
1515700805.31,4752,9.63,73194.3,-5.45,-11.51,-11.29,0,*6F
1515700806.56,4753,9.63,73194.5,-5.45,-11.51,-11.23,0,*64
1515700807.84,4754,9.63,73196.3,-5.45,-11.55,-11.29,0,*6D
1515700809.12,4755,9.63,73196.0,-5.45,-11.55,-11.37,0,*63
1515700810.37,4756,9.69,73196.3,-5.49,-11.73,-11.45,0,*6D
1515700811.63,4757,9.69,73198.8,-5.45,-11.67,-11.41,0,*61
1515700812.89,4758,9.63,73194.8,-5.45,-11.59,-11.41,0,*63
1515700814.15,4759,9.63,73194.8,-5.45,-11.67,-11.41,0,*6F
1515700815.41,4760,9.69,73198.3,-5.45,-11.59,-11.41,0,*68
1515700816.69,4761,9.63,73192.8,-5.45,-11.59,-11.29,0,*67
1515700817.97,4762,9.63,73198.3,-5.45,-11.55,-11.37,0,*67
1515700819.25,4763,9.63,73196.3,-5.45,-11.59,-11.37,0,*6A
1515700820.53,4764,9.63,73196.0,-5.45,-11.59,-11.37,0,*6D
1515700821.81,4765,9.69,73196.5,-5.45,-11.59,-11.37,0,*6C
1515700823.09,4766,9.63,73194.0,-5.45,-11.51,-11.37,0,*67
1515700824.32,4767,9.63,73196.0,-5.43,-11.45,-11.33,0,*61
1515700825.58,4768,9.63,73192.8,-5.45,-11.41,-11.29,0,*67
1515700826.8,4769,9.63,73194.5,-5.43,-11.37,-11.11,0,*6A
1515700828.03,4770,9.63,73196.3,-5.43,-11.37,-11.23,0,*63
1515700829.28,4771,9.63,73196.0,-5.45,-11.37,-11.23,0,*64
1515700830.54,4772,9.63,73194.3,-5.45,-11.37,-11.15,0,*62
1515700831.8,4773,9.69,73196.5,-5.45,-11.29,-11.15,0,*6C
1515700833.06,4774,9.63,73198.8,-5.45,-11.29,-11.15,0,*6B
1515700834.32,4775,9.63,73196.5,-5.45,-11.29,-11.15,0,*6A
1515700835.57,4776,9.63,73200.3,-5.45,-11.29,-11.15,0,*69
1515700836.84,4777,9.63,73196.8,-5.45,-11.29,-11.15,0,*68
1515700838.07,4778,9.63,73198.0,-5.45,-11.23,-11.23,0,*68
1515700839.33,4779,9.69,73198.3,-5.45,-11.29,-11.15,0,*66
1515700840.53,4780,9.63,73198.8,-5.43,-11.23,-11.15,0,*6C
1515700841.76,4781,9.63,73196.3,-5.45,-11.23,-11.15,0,*6B
1515700843.0,4782,9.63,73198.5,-5.45,-11.41,-11.23,0,*69
1515700844.22,4783,9.63,73198.3,-5.43,-11.33,-11.19,0,*62
1515700845.48,4784,9.63,73196.5,-5.45,-11.37,-11.23,0,*6E
1515700846.7,4785,9.69,73202.8,-5.43,-11.37,-11.15,0,*6C
1515700847.94,4786,9.63,73198.0,-5.45,-11.41,-11.15,0,*68
1515700849.16,4787,9.63,73196.5,-5.43,-11.33,-11.11,0,*6E
1515700850.42,4788,9.63,73202.3,-5.45,-11.37,-11.15,0,*67
1515700851.65,4789,9.63,73196.0,-5.45,-11.41,-11.23,0,*62
1515700852.88,4790,9.63,73196.0,-5.45,-11.41,-11.15,0,*6F
1515700854.14,4791,9.63,73192.5,-5.45,-11.51,-11.15,0,*6F
1515700855.39,4792,9.63,73196.5,-5.45,-11.51,-11.15,0,*6C
1515700856.65,4793,9.63,73194.8,-5.45,-11.55,-11.23,0,*6C
1515700857.85,4794,9.63,73198.5,-5.43,-11.45,-11.11,0,*6D
1515700859.11,4795,9.63,73198.8,-5.45,-11.55,-11.15,0,*6F
1515700860.37,4796,9.63,73198.5,-5.45,-11.59,-11.23,0,*65
1515700861.62,4797,9.63,73196.3,-5.45,-11.51,-11.15,0,*69
1515700862.84,4798,9.63,73196.5,-5.43,-11.51,-11.19,0,*6C
1515700864.07,4799,9.69,73202.0,-5.43,-11.51,-11.19,0,*6D
1515700865.28,4800,9.63,73196.3,-5.43,-11.45,-11.11,0,*6F
1515700866.53,4801,9.63,73196.0,-5.45,-11.51,-11.15,0,*69
1515700867.76,4802,9.63,73196.8,-5.43,-11.51,-11.11,0,*68
1515700868.99,4803,9.63,73196.8,-5.43,-11.55,-11.11,0,*6D
1515700870.21,4804,9.63,73196.5,-5.43,-11.37,-11.11,0,*6E
1515700871.44,4805,9.63,73194.8,-5.43,-11.37,-11.11,0,*6F
1515700872.69,4806,9.63,73198.0,-5.45,-11.55,-11.15,0,*6A
1515700873.9,4807,9.63,73196.8,-5.43,-11.45,-11.11,0,*68
1515700875.15,4808,9.63,73196.5,-5.45,-11.51,-11.11,0,*64
1515700876.41,4809,9.69,73196.8,-5.45,-11.51,-11.15,0,*61
1515700877.62,4810,9.63,73196.5,-5.43,-11.45,-11.11,0,*6E
1515700878.82,4811,9.69,73200.8,-5.43,-11.45,-11.11,0,*6F
1515700880.05,4812,9.63,73194.8,-5.43,-11.51,-11.11,0,*69
1515700881.26,4813,9.63,73194.5,-5.43,-11.45,-11.11,0,*6D
1515700882.52,4814,9.63,73194.8,-5.45,-11.55,-11.11,0,*6D
1515700883.77,4815,9.63,73196.3,-5.43,-11.51,-11.07,0,*69
1515700884.98,4816,9.63,73192.3,-5.43,-11.45,-11.11,0,*68
1515700886.24,4817,9.63,73194.8,-5.45,-11.55,-11.15,0,*6A
1515700887.46,4818,9.69,73198.5,-5.43,-11.51,-11.11,0,*63
1515700888.69,4819,9.63,73194.8,-5.43,-11.55,-11.19,0,*6E
1515700889.94,4820,9.63,73192.0,-5.45,-11.59,-11.15,0,*62
1515700891.17,4821,9.63,73192.3,-5.43,-11.55,-11.19,0,*65
1515700892.4,4822,9.63,73192.3,-5.43,-11.63,-11.23,0,*6A
1515700893.69,4823,9.63,73194.3,-5.45,-11.59,-11.29,0,*6E
1515700894.97,4824,9.63,73192.8,-5.45,-11.67,-11.29,0,*64
1515700896.23,4825,9.63,73192.3,-5.45,-11.59,-11.41,0,*66
1515700897.48,4826,9.69,73194.8,-5.43,-11.55,-11.33,0,*6A
1515700898.72,4827,9.63,73190.0,-5.43,-11.51,-11.33,0,*6F
1515700899.97,4828,9.63,73194.5,-5.43,-11.51,-11.37,0,*64
1515700901.23,4829,9.63,73194.8,-5.43,-11.59,-11.37,0,*6D
1515700902.49,4830,9.63,73192.3,-5.45,-11.59,-11.41,0,*62
1515700903.77,4831,9.63,73196.8,-5.45,-11.55,-11.37,0,*6E
1515700904.99,4832,9.63,73192.3,-5.43,-11.51,-11.23,0,*6A
1515700906.27,4833,9.63,73194.3,-5.45,-11.51,-11.29,0,*67
1515700907.52,4834,9.69,73196.0,-5.43,-11.51,-11.37,0,*69
1515700908.8,4835,9.63,73194.3,-5.45,-11.51,-11.37,0,*6E
1515700910.03,4836,9.63,73194.5,-5.43,-11.45,-11.37,0,*6E
1515700911.26,4837,9.63,73194.3,-5.43,-11.45,-11.37,0,*6F
1515700912.49,4838,9.69,73196.3,-5.43,-11.37,-11.45,0,*60
1515700913.74,4839,9.63,73196.8,-5.43,-11.37,-11.37,0,*64
1515700914.98,4840,9.63,73194.8,-5.43,-11.33,-11.33,0,*6A
1515700916.21,4841,9.69,73202.3,-5.43,-11.37,-11.23,0,*6E
1515700917.47,4842,9.69,73198.0,-5.45,-11.41,-11.29,0,*60
1515700918.7,4843,9.63,73198.5,-5.43,-11.37,-11.23,0,*6C
1515700919.94,4844,9.69,73200.5,-5.43,-11.33,-11.33,0,*6E
1515700921.17,4845,9.63,73196.3,-5.43,-11.33,-11.23,0,*6E
1515700922.38,4846,9.69,73198.5,-5.43,-11.23,-11.19,0,*65
1515700923.57,4847,9.69,73198.0,-5.43,-11.19,-11.11,0,*65
1515700924.77,4848,9.63,73196.5,-5.43,-11.19,-11.11,0,*6A
1515700925.97,4849,9.63,73196.0,-5.43,-11.11,-11.11,0,*63
1515700927.2,4850,9.63,73198.8,-5.45,-11.15,-11.11,0,*69
1515700928.43,4851,9.63,73198.5,-5.45,-11.15,-11.01,0,*69
1515700929.66,4852,9.63,73198.5,-5.43,-11.19,-11.07,0,*66
1515700930.89,4853,9.63,73200.8,-5.43,-11.23,-11.07,0,*6E
1515700932.15,4854,9.63,73196.5,-5.43,-11.33,-11.07,0,*68
1515700933.38,4855,9.63,73198.5,-5.43,-11.23,-11.07,0,*68
1515700934.61,4856,9.63,73198.5,-5.43,-11.19,-11.07,0,*62
1515700935.82,4857,9.63,73196.3,-5.43,-11.11,-10.97,0,*63
1515700937.05,4858,9.63,73198.5,-5.43,-11.19,-11.07,0,*6C
1515700938.28,4859,9.63,73198.0,-5.43,-11.23,-11.07,0,*64
1515700939.53,4860,9.63,73200.0,-5.45,-11.37,-11.11,0,*6A
1515700940.77,4861,9.63,73200.3,-5.43,-11.23,-11.07,0,*6F
1515700942.03,4862,9.69,73200.0,-5.43,-11.29,-11.07,0,*66
1515700943.29,4863,9.63,73196.3,-5.45,-11.29,-11.01,0,*67
1515700944.52,4864,9.69,73200.8,-5.43,-11.23,-11.07,0,*6A
1515700945.76,4865,9.63,73198.0,-5.45,-11.41,-11.01,0,*6F
1515700946.99,4866,9.63,73198.8,-5.43,-11.37,-10.97,0,*65
1515700948.23,4867,9.63,73198.8,-5.43,-11.45,-11.07,0,*69
1515700949.48,4868,9.63,73194.8,-5.45,-11.55,-11.11,0,*66
1515700950.77,4869,9.69,73194.5,-5.45,-11.51,-11.07,0,*64
1515700951.99,4870,9.69,73198.5,-5.43,-11.55,-11.19,0,*61
1515700953.22,4871,9.69,73196.8,-5.43,-11.55,-11.19,0,*60
1515700954.45,4872,9.63,73194.8,-5.43,-11.63,-11.23,0,*6F
1515700955.72,4873,9.63,73192.0,-5.45,-11.73,-11.33,0,*68
1515700956.97,4874,9.63,73194.0,-5.43,-11.63,-11.33,0,*68
1515700958.22,4875,9.63,73192.3,-5.43,-11.63,-11.33,0,*69
1515700959.47,4876,9.69,73196.0,-5.43,-11.67,-11.33,0,*6E
1515700960.75,4877,9.69,73198.5,-5.45,-11.73,-11.37,0,*68
1515700962.0,4878,9.69,73196.0,-5.45,-11.85,-11.41,0,*6F
1515700963.25,4879,9.63,73196.8,-5.43,-11.81,-11.37,0,*6D
1515700964.5,4880,9.63,73198.3,-5.43,-11.89,-11.51,0,*63
1515700965.75,4881,9.63,73198.0,-5.43,-11.89,-11.51,0,*62
1515700967.03,4882,9.63,73196.3,-5.45,-11.97,-11.59,0,*60
1515700968.3,4883,9.63,73198.5,-5.43,-11.93,-11.63,0,*6A
1515700969.55,4884,9.63,73196.5,-5.43,-11.81,-11.55,0,*6B
1515700970.83,4885,9.63,73198.8,-5.45,-11.67,-11.55,0,*64
1515700972.08,4886,9.69,73200.0,-5.43,-11.51,-11.33,0,*64
1515700973.3,4887,9.63,73200.5,-5.43,-11.51,-11.19,0,*6D
1515700974.53,4888,9.69,73202.0,-5.43,-11.63,-11.19,0,*63
1515700975.78,4889,9.63,73202.5,-5.43,-11.77,-11.33,0,*6F
1515700977.03,4890,9.63,73200.0,-5.43,-11.89,-11.51,0,*62
1515700978.29,4891,9.63,73200.3,-5.43,-11.89,-11.63,0,*62
1515700979.51,4892,9.63,73200.3,-5.43,-12.03,-11.77,0,*65
1515700980.78,4893,9.69,73202.5,-5.45,-12.21,-11.85,0,*6F
1515700982.01,4894,9.63,73200.3,-5.43,-12.21,-11.89,0,*62
1515700983.3,4895,9.63,73196.3,-5.45,-12.35,-12.07,0,*65
1515700984.56,4896,9.63,73198.0,-5.41,-12.29,-12.07,0,*6F
1515700985.82,4897,9.63,73196.8,-5.45,-12.35,-12.21,0,*63
1515700987.05,4898,9.69,73198.8,-5.43,-12.29,-12.15,0,*60
1515700988.3,4899,9.69,73202.0,-5.45,-12.35,-12.25,0,*69
1515700989.51,4900,9.63,73198.3,-5.43,-12.29,-12.21,0,*67
1515700990.73,4901,9.63,73196.8,-5.43,-12.21,-12.21,0,*6E
1515700991.96,4902,9.63,73200.5,-5.45,-12.25,-12.21,0,*6F
1515700993.2,4903,9.63,73200.5,-5.43,-12.21,-12.15,0,*6B
1515700994.41,4904,9.63,73202.0,-5.43,-12.21,-12.21,0,*6B
1515700995.64,4905,9.63,73200.3,-5.45,-12.25,-12.25,0,*6C
1515700996.85,4906,9.69,73200.5,-5.43,-12.29,-12.21,0,*61
1515700998.14,4907,9.63,73202.3,-5.45,-12.35,-12.35,0,*6E
1515700999.37,4908,9.63,73202.3,-5.43,-12.35,-12.39,0,*6B
1515701000.58,4909,9.63,73202.0,-5.43,-12.29,-12.47,0,*6E
1515701001.79,4910,9.69,73204.0,-5.43,-12.21,-12.39,0,*67
1515701003.0,4911,9.63,73200.0,-5.43,-12.29,-12.39,0,*6E
1515701004.23,4912,9.63,73196.5,-5.43,-12.35,-12.39,0,*60
1515701005.49,4913,9.63,73200.5,-5.45,-12.25,-12.53,0,*6A
1515701006.72,4914,9.69,73202.5,-5.43,-12.07,-12.47,0,*6E
1515701007.95,4915,9.63,73196.5,-5.43,-12.03,-12.53,0,*6E
1515701009.23,4916,9.63,73202.5,-5.45,-12.07,-12.57,0,*6B
1515701010.47,4917,9.63,73202.0,-5.43,-11.93,-12.47,0,*63
1515701011.76,4918,9.69,73206.3,-5.45,-11.93,-12.35,0,*6F
1515701013.04,4919,9.69,73202.8,-5.45,-11.97,-12.35,0,*6A
1515701014.33,4920,9.69,73202.8,-5.45,-12.07,-12.35,0,*6A
1515701015.59,4921,9.69,73200.8,-5.45,-12.21,-12.57,0,*6B
1515701016.84,4922,9.63,73202.8,-5.43,-12.15,-12.65,0,*68
1515701018.1,4923,9.63,73200.0,-5.43,-12.15,-12.75,0,*68
1515701019.35,4924,9.69,73204.5,-5.43,-12.07,-12.65,0,*6D
1515701020.63,4925,9.63,73202.3,-5.45,-12.11,-12.83,0,*65
1515701021.89,4926,9.69,73204.8,-5.43,-11.93,-12.79,0,*6C
1515701023.15,4927,9.69,73206.0,-5.43,-11.93,-12.75,0,*61
1515701024.41,4928,9.63,73202.0,-5.43,-11.93,-12.65,0,*6F
1515701025.67,4929,9.63,73204.0,-5.43,-11.93,-12.75,0,*6F
1515701026.95,4930,9.63,73202.5,-5.45,-11.97,-12.83,0,*6C
1515701028.23,4931,9.63,73206.0,-5.45,-11.97,-12.83,0,*6D
1515701029.51,4932,9.69,73206.3,-5.45,-11.85,-12.83,0,*6D
1515701030.74,4933,9.63,73206.3,-5.43,-11.81,-12.89,0,*64
1515701032.01,4934,9.69,73204.0,-5.45,-11.81,-12.83,0,*6F
1515701033.27,4935,9.69,73204.8,-5.43,-11.67,-12.79,0,*65
1515701034.53,4936,9.69,73204.3,-5.43,-11.63,-12.75,0,*6E
1515701035.79,4937,9.63,73204.5,-5.43,-11.55,-12.75,0,*6A
1515701037.02,4938,9.69,73204.3,-5.43,-11.45,-12.61,0,*61
1515701038.27,4939,9.69,73206.5,-5.43,-11.37,-12.61,0,*65
1515701039.51,4940,9.63,73206.3,-5.43,-11.23,-12.53,0,*6F
1515701040.74,4941,9.63,73206.8,-5.43,-11.23,-12.57,0,*6A
1515701041.94,4942,9.69,73204.3,-5.43,-11.11,-12.47,0,*69
1515701043.17,4943,9.69,73204.3,-5.43,-11.07,-12.47,0,*6F
1515701044.43,4944,9.63,73200.8,-5.45,-11.11,-12.35,0,*6C
1515701045.69,4945,9.63,73202.0,-5.45,-11.01,-12.35,0,*6C
1515701046.96,4946,9.63,73200.5,-5.45,-10.97,-12.35,0,*61
1515701048.16,4947,9.63,73202.5,-5.43,-10.93,-12.21,0,*67
1515701049.37,4948,9.63,73202.8,-5.43,-10.93,-12.29,0,*60
1515701050.58,4949,9.69,73200.5,-5.43,-10.93,-12.29,0,*61
1515701051.79,4950,9.69,73204.5,-5.43,-10.97,-12.29,0,*6D
1515701053.05,4951,9.63,73200.3,-5.45,-10.97,-12.53,0,*67
1515701054.29,4952,9.69,73202.3,-5.43,-10.93,-12.53,0,*66
1515701055.55,4953,9.69,73202.0,-5.45,-10.97,-12.57,0,*61
1515701056.77,4954,9.69,73202.8,-5.43,-10.79,-12.47,0,*61
1515701057.98,4955,9.63,73200.0,-5.43,-10.85,-12.47,0,*63
1515701059.2,4956,9.69,73200.5,-5.43,-10.79,-12.39,0,*6A
1515701060.43,4957,9.63,73198.5,-5.43,-10.79,-12.39,0,*6B
1515701061.66,4958,9.63,73202.5,-5.43,-10.79,-12.29,0,*65
1515701062.89,4959,9.63,73202.0,-5.43,-10.79,-12.47,0,*6C
1515701064.14,4960,9.63,73202.0,-5.45,-10.89,-12.65,0,*6F
1515701065.36,4961,9.63,73200.0,-5.43,-10.85,-12.65,0,*64
1515701066.62,4962,9.69,73200.3,-5.45,-10.85,-12.83,0,*69
1515701067.85,4963,9.69,73204.3,-5.43,-10.85,-12.71,0,*63
1515701069.1,4964,9.63,73202.5,-5.43,-10.79,-12.75,0,*63
1515701070.39,4965,9.69,73202.8,-5.45,-10.71,-12.71,0,*68
1515701071.65,4966,9.63,73198.3,-5.43,-10.67,-12.65,0,*6F
1515701072.91,4967,9.63,73200.0,-5.43,-10.67,-12.61,0,*6A
1515701074.16,4968,9.69,73202.8,-5.43,-10.67,-12.65,0,*61
1515701075.39,4969,9.63,73198.5,-5.43,-10.57,-12.65,0,*63
1515701076.61,4970,9.63,73196.3,-5.43,-10.49,-12.61,0,*60
1515701077.83,4971,9.63,73200.8,-5.43,-10.49,-12.65,0,*65
1515701079.09,4972,9.63,73202.3,-5.45,-10.53,-12.71,0,*6E
1515701080.31,4973,9.69,73200.8,-5.43,-10.49,-12.61,0,*63
1515701081.54,4974,9.69,73204.5,-5.43,-10.49,-12.65,0,*60
1515701082.79,4975,9.69,73204.0,-5.45,-10.45,-12.65,0,*6B
1515701084.04,4976,9.69,73204.3,-5.43,-10.41,-12.65,0,*6A
1515701085.26,4977,9.69,73204.0,-5.43,-10.35,-12.65,0,*68
1515701086.49,4978,9.63,73200.0,-5.43,-10.27,-12.53,0,*61
1515701087.72,4979,9.63,73200.8,-5.43,-10.27,-12.53,0,*60
1515701088.93,4980,9.69,73200.8,-5.43,-10.23,-12.39,0,*6E
1515701090.13,4981,9.69,73202.0,-5.43,-10.23,-12.39,0,*6F
1515701091.34,4982,9.69,73204.0,-5.43,-10.15,-12.29,0,*68
1515701092.56,4983,9.69,73204.8,-5.43,-10.09,-12.15,0,*6B
1515701093.76,4984,9.63,73202.8,-5.43,-10.09,-12.21,0,*6B
1515701094.96,4985,9.69,73200.0,-5.43,-10.01,-12.21,0,*62
1515701096.16,4986,9.63,73196.8,-5.43,-10.09,-12.21,0,*69
1515701097.37,4987,9.63,73198.0,-5.43,-9.89,-12.15,0,*5F
1515701098.59,4988,9.63,73196.5,-5.43,-9.97,-12.07,0,*5C
1515701099.79,4989,9.69,73198.8,-5.43,-10.01,-12.03,0,*6E
1515701100.98,4990,9.69,73196.8,-5.43,-9.89,-12.03,0,*5E
1515701102.22,4991,9.63,73198.0,-5.43,-9.83,-11.93,0,*5F
1515701103.45,4992,9.63,73198.5,-5.43,-9.75,-11.63,0,*5A
1515701104.68,4993,9.63,73198.3,-5.43,-9.71,-11.55,0,*5A
1515701105.93,4994,9.63,73194.8,-5.43,-9.53,-11.55,0,*5D
1515701107.15,4995,9.63,73196.0,-5.43,-9.27,-11.07,0,*58
1515701108.41,4996,9.69,73198.3,-5.43,-9.15,-10.79,0,*52
1515701109.62,4997,9.63,73194.8,-5.43,-9.01,-10.57,0,*5A
1515701110.83,4998,9.63,73196.0,-5.43,-9.01,-10.53,0,*51
1515701112.09,4999,9.69,73198.8,-5.45,-8.93,-10.41,0,*5F
1515701113.3,5000,9.69,73198.8,-5.43,-9.01,-10.27,0,*5B
1515701114.51,5001,9.63,73198.8,-5.43,-9.05,-10.23,0,*5A
1515701115.74,5002,9.69,73196.3,-5.43,-9.15,-10.27,0,*5C
1515701116.97,5003,9.63,73196.8,-5.43,-9.19,-10.41,0,*51
1515701118.2,5004,9.69,73200.0,-5.43,-9.31,-10.41,0,*5C
1515701119.41,5005,9.69,73200.5,-5.43,-9.19,-10.53,0,*54
1515701120.61,5006,9.63,73198.3,-5.43,-9.27,-10.57,0,*5E
1515701121.86,5007,9.69,73202.0,-5.43,-9.45,-10.67,0,*58
1515701123.11,5008,9.63,73198.8,-5.43,-9.45,-10.79,0,*58
1515701124.36,5009,9.63,73198.8,-5.41,-9.45,-10.85,0,*58
1515701125.61,5010,9.63,73196.8,-5.41,-9.45,-10.93,0,*57
1515701126.88,5011,9.63,73198.5,-5.41,-9.53,-11.07,0,*5D
1515701128.13,5012,9.69,73202.3,-5.41,-9.57,-10.97,0,*52
1515701129.38,5013,9.69,73200.5,-5.41,-9.53,-10.97,0,*57
1515701130.65,5014,9.63,73200.3,-5.41,-9.57,-11.07,0,*5C
1515701131.9,5015,9.63,73200.5,-5.43,-9.53,-11.07,0,*5B
1515701133.15,5016,9.63,73200.0,-5.41,-9.53,-10.97,0,*52
1515701134.37,5017,9.63,73200.0,-5.43,-9.49,-11.11,0,*55
1515701135.6,5018,9.63,73202.3,-5.43,-9.45,-10.97,0,*59
1515701136.82,5019,9.69,73204.0,-5.43,-9.45,-10.93,0,*5C
1515701138.04,5020,9.63,73202.8,-5.43,-9.57,-10.93,0,*55
1515701139.26,5021,9.69,73204.3,-5.43,-9.53,-10.93,0,*50
1515701140.51,5022,9.63,73202.0,-5.41,-9.45,-10.93,0,*56
1515701141.72,5023,9.63,73202.0,-5.43,-9.53,-10.85,0,*55
1515701142.97,5024,9.69,73204.3,-5.43,-9.53,-10.79,0,*51
1515701144.2,5025,9.63,73204.0,-5.41,-9.57,-10.85,0,*55
1515701145.45,5026,9.63,73200.8,-5.41,-9.53,-10.85,0,*52
1515701146.69,5027,9.69,73202.5,-5.41,-9.53,-10.85,0,*53
1515701147.95,5028,9.69,73206.5,-5.41,-9.57,-10.71,0,*53
1515701149.22,5029,9.63,73204.5,-5.41,-9.57,-10.79,0,*5A
1515701150.47,5030,9.69,73204.0,-5.41,-9.67,-10.79,0,*51
1515701151.75,5031,9.69,73206.3,-5.41,-9.57,-10.67,0,*5C
1515701152.99,5032,9.63,73202.8,-5.41,-9.57,-10.49,0,*53
1515701154.23,5033,9.69,73204.0,-5.41,-9.57,-10.49,0,*52
1515701155.48,5034,9.63,73202.8,-5.41,-9.57,-10.49,0,*55
1515701156.71,5035,9.63,73202.3,-5.41,-9.71,-10.53,0,*5B
1515701157.94,5036,9.63,73200.0,-5.41,-9.71,-10.49,0,*53
1515701159.16,5037,9.63,73200.3,-5.41,-9.67,-10.49,0,*55
1515701160.38,5038,9.69,73202.5,-5.39,-9.61,-10.31,0,*5C
1515701161.63,5039,9.63,73202.0,-5.41,-9.57,-10.35,0,*53
1515701162.85,5040,9.63,73204.0,-5.39,-9.53,-10.31,0,*52
1515701164.09,5041,9.69,73202.3,-5.41,-9.71,-10.35,0,*58
1515701165.32,5042,9.63,73202.5,-5.41,-9.71,-10.35,0,*5B
1515701166.56,5043,9.69,73204.0,-5.41,-9.71,-10.35,0,*5A
1515701167.79,5044,9.69,73204.3,-5.41,-9.75,-10.35,0,*59
1515701169.01,5045,9.63,73204.0,-5.39,-9.83,-10.31,0,*5A
1515701170.25,5046,9.69,73204.3,-5.41,-9.71,-10.35,0,*5F
1515701171.48,5047,9.69,73206.8,-5.41,-9.71,-10.35,0,*5E
1515701172.69,5048,9.63,73204.0,-5.39,-9.71,-10.31,0,*5A
1515701173.94,5049,9.63,73202.0,-5.41,-9.83,-10.35,0,*5D
1515701175.17,5050,9.69,73204.0,-5.41,-9.75,-10.35,0,*5C
1515701176.37,5051,9.69,73208.0,-5.39,-9.75,-10.35,0,*52
1515701177.62,5052,9.69,73208.5,-5.41,-9.83,-10.27,0,*54
1515701178.88,5053,9.69,73206.8,-5.41,-9.75,-10.41,0,*5C
1515701180.11,5054,9.63,73204.3,-5.41,-9.71,-10.35,0,*5C
1515701181.34,5055,9.69,73204.3,-5.41,-9.75,-10.23,0,*5E
1515701182.57,5056,9.63,73200.0,-5.41,-9.75,-10.27,0,*59
1515701183.8,5057,9.69,73206.8,-5.41,-9.75,-10.27,0,*58
1515701185.03,5058,9.63,73200.8,-5.41,-9.89,-10.27,0,*54
1515701186.28,5059,9.63,73200.3,-5.41,-9.83,-10.15,0,*5E
1515701187.53,5060,9.63,73200.3,-5.41,-9.83,-10.15,0,*54
1515701188.73,5061,9.63,73200.3,-5.39,-9.71,-10.05,0,*56
1515701189.93,5062,9.63,73202.5,-5.39,-9.79,-10.15,0,*5C
1515701191.14,5063,9.63,73202.0,-5.41,-9.89,-10.09,0,*50
1515701192.36,5064,9.63,73200.0,-5.41,-9.89,-10.09,0,*57
1515701193.59,5065,9.69,73202.0,-5.41,-9.97,-10.01,0,*51
1515701194.77,5066,9.69,73204.0,-5.39,-9.93,-9.97,0,*6E
1515701196.0,5067,9.69,73206.3,-5.39,-9.83,-9.83,0,*6B
1515701197.22,5068,9.63,73200.0,-5.41,-9.97,-9.89,0,*64
1515701198.43,5069,9.63,73202.5,-5.41,-10.09,-9.89,0,*5A
1515701199.62,5070,9.63,73200.5,-5.39,-9.93,-9.93,0,*6D
1515701200.81,5071,9.69,73202.3,-5.39,-9.93,-9.79,0,*68
1515701202.04,5072,9.63,73196.8,-5.41,-9.97,-9.83,0,*65
1515701203.28,5073,9.69,73202.0,-5.41,-9.97,-9.83,0,*64
1515701204.47,5074,9.63,73200.3,-5.39,-9.93,-9.71,0,*65
1515701205.66,5075,9.63,73202.5,-5.39,-10.05,-9.79,0,*5B
1515701206.88,5076,9.63,73200.5,-5.41,-10.09,-9.75,0,*57
1515701208.07,5077,9.63,73198.0,-5.39,-10.09,-9.71,0,*5D
1515701209.26,5078,9.63,73200.3,-5.39,-10.05,-9.67,0,*59
1515701210.47,5079,9.69,73202.5,-5.41,-10.09,-9.71,0,*5C
1515701211.66,5080,9.63,73200.0,-5.39,-10.09,-9.71,0,*55
1515701212.85,5081,9.69,73206.3,-5.39,-10.09,-9.71,0,*54
1515701214.05,5082,9.63,73202.8,-5.39,-10.23,-9.71,0,*5F
1515701215.25,5083,9.63,73202.0,-5.39,-10.31,-9.79,0,*55
1515701216.47,5084,9.69,73202.5,-5.41,-10.35,-9.75,0,*55
1515701217.7,5085,9.69,73202.0,-5.41,-10.23,-9.71,0,*57
1515701218.93,5086,9.69,73198.0,-5.41,-10.35,-9.67,0,*54
1515701220.15,5087,9.63,73198.0,-5.41,-10.49,-9.71,0,*59
1515701221.35,5088,9.63,73196.3,-5.39,-10.45,-9.71,0,*55
1515701222.57,5089,9.63,73198.5,-5.41,-10.49,-9.71,0,*57
1515701223.8,5090,9.63,73202.5,-5.41,-10.49,-9.67,0,*58
1515701224.99,5091,9.69,73202.8,-5.39,-10.53,-9.67,0,*5D
1515701226.18,5092,9.69,73200.8,-5.39,-10.57,-9.71,0,*5D
1515701227.41,5093,9.69,73202.0,-5.39,-10.75,-9.71,0,*5C
1515701228.67,5094,9.69,73202.8,-5.41,-10.67,-9.71,0,*57
1515701229.92,5095,9.63,73198.5,-5.39,-10.67,-9.61,0,*58
1515701231.16,5096,9.69,73200.3,-5.39,-10.75,-9.61,0,*58
1515701232.38,5097,9.63,73196.8,-5.39,-10.79,-9.71,0,*54
1515701233.6,5098,9.69,73202.0,-5.39,-10.75,-9.71,0,*57
1515701234.83,5099,9.69,73200.8,-5.41,-10.85,-9.71,0,*56
1515701236.05,5100,9.63,73198.3,-5.39,-10.79,-9.71,0,*5B
1515701237.24,5101,9.63,73198.0,-5.39,-10.89,-9.67,0,*52
1515701238.47,5102,9.69,73202.0,-5.39,-10.93,-9.61,0,*5C
1515701239.69,5103,9.69,73202.3,-5.41,-11.11,-9.75,0,*5C
1515701240.89,5104,9.63,73198.8,-5.39,-11.01,-9.71,0,*51
1515701242.12,5105,9.69,73202.3,-5.39,-11.07,-9.71,0,*56
1515701243.34,5106,9.69,73200.8,-5.41,-11.11,-9.75,0,*59
1515701244.54,5107,9.69,73200.5,-5.39,-11.23,-9.75,0,*56
1515701245.79,5108,9.69,73200.3,-5.39,-11.33,-9.83,0,*51
1515701247.0,5109,9.63,73198.5,-5.39,-11.19,-9.83,0,*58
1515701248.22,5110,9.63,73194.8,-5.39,-11.33,-9.79,0,*5D
1515701249.47,5111,9.69,73200.0,-5.41,-11.37,-9.89,0,*58
1515701250.67,5112,9.69,73200.8,-5.39,-11.45,-9.97,0,*5E
1515701251.92,5113,9.69,73202.5,-5.41,-11.51,-9.97,0,*55
1515701253.14,5114,9.69,73200.3,-5.39,-11.55,-9.97,0,*59
1515701254.39,5115,9.69,73200.8,-5.39,-11.51,-9.83,0,*59
1515701255.61,5116,9.69,73204.0,-5.39,-11.59,-9.97,0,*57
1515701256.83,5117,9.69,73200.5,-5.39,-11.63,-9.97,0,*5F
1515701258.05,5118,9.63,73202.8,-5.39,-11.73,-10.05,0,*62
1515701259.28,5119,9.63,73202.3,-5.39,-11.85,-10.05,0,*6A
1515701260.5,5120,9.69,73204.3,-5.39,-11.77,-10.05,0,*6D
1515701261.76,5121,9.69,73206.0,-5.41,-11.93,-10.23,0,*6D
1515701262.99,5122,9.69,73202.8,-5.39,-11.97,-10.23,0,*65
1515701264.25,5123,9.63,73196.0,-5.41,-11.93,-10.23,0,*6F
1515701265.51,5124,9.63,73198.0,-5.41,-11.93,-10.23,0,*68
1515701266.78,5125,9.69,73200.8,-5.41,-11.93,-10.27,0,*6D
1515701267.98,5126,9.63,73198.5,-5.39,-12.03,-10.23,0,*6F
1515701269.21,5127,9.69,73200.8,-5.41,-12.03,-10.23,0,*61
1515701270.46,5128,9.63,73200.3,-5.41,-12.15,-10.23,0,*69
1515701271.71,5129,9.69,73200.8,-5.41,-12.21,-10.35,0,*68
1515701272.95,5130,9.69,73200.5,-5.41,-12.21,-10.35,0,*60
1515701274.17,5131,9.63,73198.0,-5.39,-12.25,-10.35,0,*6A
1515701275.4,5132,9.63,73198.3,-5.41,-12.29,-10.49,0,*61
1515701276.6,5133,9.63,73196.3,-5.39,-12.39,-10.53,0,*65
1515701277.81,5134,9.69,73196.8,-5.39,-12.25,-10.53,0,*6F
1515701279.06,5135,9.69,73202.3,-5.41,-12.35,-10.57,0,*64
1515701280.29,5136,9.69,73200.3,-5.39,-12.43,-10.75,0,*69
1515701281.52,5137,9.69,73198.0,-5.39,-12.57,-10.89,0,*6E
1515701282.77,5138,9.69,73198.8,-5.41,-12.61,-10.93,0,*60
1515701284.02,5139,9.63,73198.5,-5.41,-12.65,-10.85,0,*62
1515701285.3,5140,9.69,73198.0,-5.41,-12.75,-11.07,0,*66
1515701286.56,5141,9.63,73196.5,-5.41,-12.75,-11.15,0,*64
1515701287.79,5142,9.69,73200.8,-5.39,-12.75,-11.15,0,*68
1515701289.02,5143,9.63,73196.0,-5.39,-12.75,-11.19,0,*65
1515701290.26,5144,9.69,73202.0,-5.41,-12.89,-11.33,0,*66
1515701291.5,5145,9.69,73200.0,-5.41,-12.93,-11.45,0,*6D
1515701292.72,5146,9.69,73202.5,-5.39,-12.97,-11.33,0,*64
1515701293.94,5147,9.63,73196.5,-5.39,-12.83,-11.45,0,*61
1515701295.19,5148,9.69,73196.0,-5.41,-13.15,-11.67,0,*6F
1515701296.47,5149,9.63,73196.3,-5.41,-13.01,-11.81,0,*63
1515701297.69,5150,9.63,73196.5,-5.39,-13.07,-11.81,0,*62
1515701298.95,5151,9.63,73198.3,-5.39,-13.01,-11.89,0,*6D
1515701300.2,5152,9.69,73202.0,-5.39,-13.01,-11.89,0,*6E
1515701301.49,5153,9.63,73196.3,-5.41,-13.01,-11.93,0,*6B
1515701302.75,5154,9.69,73200.3,-5.41,-12.93,-11.93,0,*66
1515701304.01,5155,9.69,73202.3,-5.41,-13.19,-12.07,0,*6A
1515701305.24,5156,9.69,73200.5,-5.41,-13.07,-12.21,0,*62
1515701306.5,5157,9.63,73200.5,-5.41,-13.01,-12.21,0,*65
1515701307.73,5158,9.63,73196.0,-5.41,-13.07,-12.29,0,*64
1515701309.02,5159,9.63,73198.5,-5.41,-13.01,-12.35,0,*6E
1515701310.24,5160,9.63,73200.3,-5.39,-13.11,-12.35,0,*6A
1515701311.45,5161,9.63,73198.3,-5.39,-12.97,-12.43,0,*65
1515701312.7,5162,9.63,73202.3,-5.41,-12.89,-12.61,0,*66
1515701313.93,5163,9.63,73202.3,-5.39,-12.97,-12.61,0,*67